Hourly Data Report for June 20, 2012

All times are specified in Local Standard Time (LST). Add 1 hour to adjust for Daylight Saving Time where and when it is observed.

SAINT JOHN A
NEW BRUNSWICK

45°18'58.000" N
65°53'24.000" W
108.80 m
8104901
71609
YSJ

Download Data

Hourly Data (June 2012)
Hourly Data Report for June 20, 2012
Temp Definition
°C
Dew Point Temp Definition
°C
Rel Hum Definition
%
Wind Dir Definition
10's deg

Wind Spd Definition
km/h
Visibility Definition
km
Stn Press Definition
kPa
Hmdx Definition


Wind Chill Definition


Weather Definition


TIME
00:00 Legend Double Dagger 11.5 11.5 100 23 14 0.8 100.37     Fog
01:00 Legend Double Dagger 11.5 11.5 100 22 18 1.0 100.27     Fog
02:00 Legend Double Dagger 11.7 11.7 100 21 22 1.0 100.20     Fog
03:00 Legend Double Dagger 11.8 11.8 100 21 21 1.0 100.12     Fog
04:00 Legend Double Dagger 11.6 11.6 100 22 19 0.8 100.09     Fog
05:00 Legend Double Dagger 11.6 11.6 100 22 19 0.8 100.11     Fog
06:00 Legend Double Dagger 11.9 11.9 100 23 19 0.4 100.12     Fog
07:00 Legend Double Dagger 12.4 12.4 100 23 11 0.8 100.10     Fog
08:00 Legend Double Dagger 12.9 12.9 100 21 15 1.6 100.06     Fog
09:00 Legend Double Dagger 14.6 13.7 94 20 15 8.1 99.98     Fog
10:00 Legend Double Dagger 16.7 14.2 85 19 15 10.0 99.90     LegendNANA
11:00 Legend Double Dagger 18.4 14.9 80 18 16 10.0 99.89     Mostly Cloudy
12:00 Legend Double Dagger 19.5 14.8 74 20 17 10.0 99.85     LegendNANA
13:00 Legend Double Dagger 20.4 15.3 72 20 20 10.0 99.74 25   LegendNANA
14:00 Legend Double Dagger 22.2 16.1 68 19 18 10.0 99.64 27   Mostly Cloudy
15:00 Legend Double Dagger 22.2 15.9 67 20 18 10.0 99.56 27   LegendNANA
16:00 Legend Double Dagger 23.3 17.6 70 20 17 10.0 99.53 29   LegendNANA
17:00 Legend Double Dagger 22.8 17.4 71 20 17 10.0 99.43 28   Mostly Cloudy
18:00 Legend Double Dagger 24.6 17.9 66 26 7 10.0 99.41 31   LegendNANA
19:00 Legend Double Dagger 23.7 18.0 70 29 6 10.0 99.42 30   LegendNANA
20:00 Legend Double Dagger 21.9 18.2 79   0 10.0 99.46 28   Mostly Cloudy
21:00 Legend Double Dagger 21.7 14.9 65 33 14 10.0 99.49 26   LegendNANA
22:00 Legend Double Dagger 22.9 10.8 46 34 18 10.0 99.48 25   LegendNANA
23:00 Legend Double Dagger 22.5 10.1 45 33 26 10.0 99.49     Mainly Clear

Notes on Data Quality.

Legend

  • E = Estimated
  • M = Missing
  • NA = Not Available
  • ‡ = Partner data that is not subject to review by the National Climate Archives
Date modified: